Seattle, WA
on Tuesday, November 20, 2012

Tuesday
Previous Day Next Day
Daily Summary
 ActualAverageRecord
Temperature
Mean Temperature °F 44°F  
Max Temperature 52°F 50°F 64°F (1987)
Min Temperature 45°F 39°F 25°F (1985)
Degree Days
Heating Degree Days 16 21  
Month to date heating degree days 333 369  
Since 1 July heating degree days 826 966  
Cooling Degree Days 0 0  
Month to date cooling degree days 0 0  
Year to date cooling degree days 177 189  
Moisture
Dew Point 41°F   
Average Humidity 79    
Maximum Humidity 93    
Minimum Humidity 65    
Precipitation
Precipitation 0.15 in 0.23 in 3.41 in (1959)
Month to date precipitation 5.01 4.35  
Year to date precipitation 38.14 29.92  
Snow
Snow 0.00 in in 5.20 in (1960)
Month to date snowfall 0.0  
Since 1 July snowfall 0.0  
Snow Depth 0.00 in   
Wind
Wind Speed 9 mph   
Max Wind Speed 31 mph   
Max Gust Speed 39 mph   
Visibility 10 miles   
Events Rain   

Key: T is trace of precipitation, MM is missing value
Source: NWS Daily Summary
Time(PST)TemperatureDew PointHumidity Pressure Visibility Wind DirectionWind SpeedGust SpeedPrecipitationEvents Conditions
12:20 AM 48.2°F 44.6°F 87% 29.70 in 10.0 miles South 5.8 mph - N/A   Mostly Cloudy
12:53 AM 48.0°F 44.1°F 86% 29.71 in 10.0 miles South 6.9 mph - N/A   Mostly Cloudy
1:53 AM 46.9°F 44.1°F 90% 29.71 in 10.0 miles SSE 6.9 mph - 0.00 in   Scattered Clouds
2:53 AM 48.0°F 43.0°F 83% 29.70 in 10.0 miles SE 9.2 mph - N/A   Mostly Cloudy
3:53 AM 48.0°F 43.0°F 83% 29.70 in 10.0 miles South 3.5 mph - 0.00 in   Overcast
4:53 AM 46.9°F 43.0°F 86% 29.68 in 10.0 miles SE 4.6 mph - 0.00 in   Mostly Cloudy
5:53 AM 46.0°F 41.0°F 83% 29.68 in 10.0 miles SE 8.1 mph - N/A   Scattered Clouds
6:53 AM 46.9°F 41.0°F 80% 29.66 in 10.0 miles ESE 9.2 mph - N/A   Mostly Cloudy
7:53 AM 46.0°F 39.9°F 79% 29.62 in 10.0 miles SE 3.5 mph - N/A   Mostly Cloudy
8:53 AM 48.0°F 39.9°F 74% 29.59 in 10.0 miles SE 8.1 mph - N/A   Mostly Cloudy
9:53 AM 48.9°F 39.9°F 71% 29.57 in 10.0 miles SE 4.6 mph - N/A   Overcast
10:53 AM 46.9°F 42.1°F 83% 29.60 in 4.0 miles SSW 4.6 mph - 0.05 in Rain Rain
11:53 AM 46.9°F 43.0°F 86% 29.58 in 9.0 miles ESE 10.4 mph - 0.08 in Rain Light Rain
12:53 PM 48.9°F 43.0°F 80% 29.58 in 10.0 miles SE 16.1 mph 26.5 mph 0.01 in   Mostly Cloudy
1:53 PM 51.1°F 43.0°F 74% 29.63 in 6.0 miles WSW 21.9 mph 39.1 mph 0.00 in Rain Light Rain
2:53 PM 48.9°F 42.1°F 77% 29.66 in 10.0 miles SSW 12.7 mph 27.6 mph 0.01 in   Mostly Cloudy
3:48 PM 50.0°F 42.8°F 76% 29.67 in 10.0 miles South 16.1 mph 24.2 mph 0.00 in   Mostly Cloudy
3:53 PM 51.1°F 42.1°F 71% 29.69 in 10.0 miles South 13.8 mph 21.9 mph 0.00 in   Mostly Cloudy
4:05 PM 50.0°F 41.0°F 71% 29.67 in 10.0 miles South 15.0 mph - N/A   Mostly Cloudy
4:53 PM 48.9°F 39.9°F 71% 29.68 in 10.0 miles SSE 13.8 mph - N/A   Mostly Cloudy
5:53 PM 48.9°F 39.9°F 71% 29.68 in 10.0 miles South 12.7 mph - N/A   Scattered Clouds
6:36 PM 48.2°F 39.2°F 71% 29.66 in 10.0 miles SSE 13.8 mph - N/A   Mostly Cloudy
6:53 PM 48.9°F 39.0°F 69% 29.68 in 10.0 miles SSE 18.4 mph - 0.00 in   Mostly Cloudy
7:53 PM 48.0°F 39.0°F 71% 29.69 in 10.0 miles South 6.9 mph - 0.00 in   Mostly Cloudy
8:53 PM 46.9°F 37.9°F 71% 29.69 in 10.0 miles SE 8.1 mph - N/A   Mostly Cloudy
9:53 PM 46.9°F 37.0°F 68% 29.66 in 10.0 miles SE 6.9 mph - N/A   Mostly Cloudy
10:53 PM 46.0°F 36.0°F 68% 29.63 in 10.0 miles South 4.6 mph - N/A   Mostly Cloudy
11:53 PM 45.0°F 37.0°F 74% 29.59 in 10.0 miles ESE 8.1 mph - N/A   Mostly Cloudy
Moon Phase
Nov. 20 Nov. 28 Dec. 06 Dec. 13 Dec. 20
Sunrise:07:22 AM (PST) Moon Rise:12:44 PM (PST)11/20
Sunset:04:27 PM (PST) Moon Set:No Moon Set/

Copyright © 2014 The Weather Underground, Inc.